Total_Precipitation_Accumulation
0.00 0.00 0.01 0.01 0.01 0.02 0.03 0.02 0.02 0.02 0.03 0.01 0.00 0.01 0.01 0.01 0.00 0.00 0.00 0.00 0.00 0.03 0.08 0.00 0.00 0.00 0.00 0.00 0.00 0.05 0.07 0.02 0.00 0.00 0.01 0.03 0.02 0.00 0.00 0.00 0.00 0.03 0.03 0.06 0.18
0.03 0.01 0.01 0.01 0.01 0.02 0.02 0.01 0.02 0.03 0.03 0.01 0.00 0.00 0.01 0.00 0.00 0.00 0.00 0.00 0.04 0.22 0.10 0.02 0.00 0.00 0.00 0.00 0.00 0.03 0.03 0.01 0.00 0.00 0.00 0.03 0.08 0.02 0.02 0.02 0.01 0.05 0.05 0.08 0.11
0.05 0.04 0.06 0.03 0.02 0.01 0.02 0.02 0.03 0.03 0.01 0.00 0.00 0.00 0.00 0.00 0.00 0.00 0.00 0.01 0.04 0.05 0.01 0.00 0.00 0.00 0.00 0.00 0.00 0.02 0.01 0.00 0.00 0.00 0.00 0.05 0.11 0.03 0.12 0.13 0.01 0.01 0.08 0.12 0.20
0.08 0.10 0.09 0.04 0.02 0.02 0.02 0.02 0.02 0.03 0.00 0.00 0.01 0.00 0.00 0.00 0.00 0.00 0.00 0.00 0.00 0.00 0.00 0.00 0.00 0.00 0.00 0.00 0.00 0.01 0.00 0.00 0.00 0.00 0.03 0.05 0.14 0.12 0.15 0.11 0.00 0.01 0.15 0.31 0.34
0.08 0.14 0.12 0.06 0.05 0.02 0.01 0.02 0.03 0.03 0.00 0.00 0.01 0.00 0.00 0.00 0.00 0.00 0.00 0.00 0.00 0.00 0.00 0.00 0.00 0.01 0.00 0.00 0.01 0.03 0.00 0.00 0.00 0.00 0.02 0.04 0.19 0.29 0.17 0.05 0.00 0.01 0.12 0.28 0.32
0.10 0.17 0.20 0.16 0.09 0.03 0.02 0.02 0.03 0.03 0.00 0.00 0.00 0.00 0.00 0.00 0.00 0.00 0.00 0.00 0.00 0.00 0.00 0.00 0.00 0.02 0.04 0.03 0.03 0.02 0.01 0.00 0.00 0.02 0.03 0.07 0.16 0.45 0.22 0.05 0.02 0.04 0.11 0.18 0.36
0.20 0.24 0.17 0.09 0.05 0.02 0.01 0.02 0.03 0.02 0.00 0.00 0.01 0.00 0.00 0.00 0.00 0.00 0.00 0.00 0.00 0.00 0.00 0.00 0.00 0.01 0.03 0.06 0.10 0.07 0.07 0.02 0.00 0.01 0.03 0.12 0.18 0.36 0.28 0.12 0.04 0.06 0.07 0.15 0.32
0.27 0.36 0.31 0.24 0.08 0.02 0.01 0.02 0.02 0.00 0.00 0.00 0.01 0.00 0.00 0.00 0.00 0.00 0.00 0.00 0.00 0.00 0.00 0.00 0.02 0.04 0.06 0.09 0.08 0.08 0.08 0.06 0.00 0.01 0.04 0.18 0.20 0.50 0.48 0.28 0.12 0.04 0.03 0.06 0.15
0.17 0.25 0.25 0.20 0.08 0.01 0.01 0.01 0.01 0.00 0.00 0.01 0.00 0.00 0.00 0.00 0.00 0.00 0.00 0.00 0.00 0.00 0.00 0.01 0.01 0.02 0.06 0.06 0.03 0.10 0.13 0.04 0.02 0.01 0.04 0.11 0.16 0.56 0.69 0.51 0.32 0.10 0.05 0.06 0.11
0.21 0.24 0.22 0.17 0.07 0.02 0.01 0.00 0.00 0.00 0.00 0.00 0.00 0.00 0.00 0.00 0.00 0.00 0.00 0.00 0.00 0.00 0.00 0.00 0.01 0.01 0.03 0.05 0.03 0.18 0.21 0.10 0.05 0.07 0.13 0.12 0.10 0.37 0.82 0.69 0.48 0.21 0.09 0.08 0.10
0.33 0.35 0.30 0.16 0.04 0.01 0.00 0.00 0.00 0.00 0.00 0.00 0.00 0.00 0.00 0.00 0.00 0.00 0.00 0.00 0.00 0.00 0.01 0.01 0.01 0.01 0.01 0.02 0.03 0.11 0.19 0.13 0.03 0.07 0.07 0.06 0.05 0.18 0.75 0.83 0.49 0.28 0.12 0.08 0.09
0.31 0.25 0.21 0.15 0.06 0.02 0.00 0.00 0.00 0.00 0.00 0.00 0.00 0.00 0.00 0.00 0.00 0.00 0.00 0.00 0.00 0.00 0.00 0.01 0.01 0.00 0.00 0.02 0.08 0.08 0.18 0.10 0.04 0.11 0.12 0.06 0.08 0.10 0.48 0.78 0.62 0.42 0.14 0.07 0.06
0.63 0.50 0.33 0.17 0.10 0.04 0.00 0.00 0.00 0.00 0.00 0.00 0.00 0.00 0.00 0.00 0.00 0.00 0.00 0.00 0.00 0.00 0.00 0.01 0.00 0.00 0.00 0.08 0.08 0.08 0.19 0.13 0.08 0.20 0.27 0.13 0.18 0.16 0.25 0.54 0.61 0.43 0.16 0.06 0.02
0.74 0.58 0.27 0.15 0.07 0.01 0.00 0.00 0.00 0.00 0.00 0.00 0.00 0.00 0.00 0.00 0.00 0.00 0.00 0.00 0.00 0.00 0.00 0.00 0.00 0.00 0.03 0.09 0.19 0.24 0.20 0.23 0.23 0.66 0.62 0.27 0.28 0.30 0.13 0.26 0.35 0.44 0.23 0.08 0.02
0.41 0.40 0.17 0.03 0.00 0.00 0.00 0.00 0.00 0.00 0.00 0.00 0.00 0.00 0.00 0.00 0.00 0.00 0.00 0.00 0.00 0.00 0.00 0.00 0.00 0.00 0.01 0.07 0.31 0.34 0.44 0.21 0.27 0.62 0.54 0.26 0.42 0.36 0.13 0.13 0.17 0.32 0.38 0.13 0.02
0.37 0.36 0.09 0.02 0.00 0.00 0.00 0.00 0.00 0.00 0.00 0.00 0.00 0.00 0.00 0.00 0.00 0.00 0.00 0.00 0.00 0.00 0.00 0.00 0.00 0.01 0.10 0.07 0.27 0.20 0.23 0.24 0.49 0.78 0.49 0.21 0.26 0.45 0.25 0.11 0.13 0.16 0.52 0.20 0.04
0.24 0.36 0.15 0.00 0.00 0.00 0.00 0.00 0.00 0.00 0.00 0.00 0.00 0.00 0.00 0.00 0.00 0.00 0.00 0.00 0.03 0.04 0.07 0.09 0.16 0.16 0.18 0.15 0.16 0.16 0.06 0.17 0.42 0.46 0.44 0.13 0.16 0.14 0.08 0.08 0.11 0.09 0.47 0.32 0.08
0.33 0.25 0.10 0.00 0.00 0.00 0.00 0.00 0.00 0.00 0.00 0.00 0.00 0.00 0.00 0.00 0.00 0.00 0.00 0.00 0.02 0.08 0.09 0.16 0.14 0.10 0.12 0.19 0.27 0.19 0.04 0.10 0.22 0.28 0.23 0.04 0.06 0.11 0.04 0.01 0.01 0.04 0.34 0.40 0.13
0.56 0.12 0.07 0.01 0.00 0.00 0.00 0.00 0.00 0.00 0.00 0.00 0.00 0.00 0.00 0.00 0.00 0.00 0.00 0.00 0.00 0.01 0.04 0.02 0.02 0.04 0.14 0.19 0.23 0.15 0.08 0.04 0.06 0.06 0.09 0.14 0.09 0.06 0.01 0.01 0.01 0.06 0.39 0.47 0.15
0.44 0.11 0.05 0.02 0.01 0.00 0.00 0.00 0.00 0.00 0.00 0.00 0.00 0.00 0.00 0.00 0.00 0.00 0.00 0.00 0.00 0.00 0.00 0.01 0.01 0.00 0.03 0.08 0.12 0.11 0.11 0.03 0.01 0.05 0.14 0.10 0.08 0.11 0.01 0.01 0.08 0.18 0.45 0.51 0.18
0.30 0.14 0.06 0.04 0.01 0.00 0.00 0.00 0.00 0.00 0.00 0.00 0.00 0.00 0.00 0.00 0.00 0.00 0.00 0.00 0.00 0.00 0.00 0.00 0.00 0.01 0.03 0.10 0.17 0.12 0.04 0.01 0.00 0.00 0.05 0.05 0.21 0.07 0.01 0.01 0.06 0.15 0.41 0.65 0.31
0.16 0.20 0.10 0.04 0.02 0.00 0.00 0.00 0.00 0.00 0.00 0.00 0.00 0.00 0.00 0.00 0.00 0.00 0.00 0.00 0.00 0.00 0.00 0.00 0.00 0.01 0.02 0.01 0.01 0.01 0.00 0.00 0.01 0.00 0.00 0.03 0.16 0.01 0.00 0.00 0.04 0.10 0.27 0.60 0.42
0.16 0.23 0.23 0.05 0.01 0.00 0.00 0.00 0.00 0.00 0.00 0.00 0.00 0.00 0.00 0.00 0.00 0.00 0.00 0.00 0.00 0.00 0.01 0.01 0.00 0.02 0.03 0.01 0.00 0.00 0.00 0.00 0.00 0.00 0.00 0.02 0.10 0.00 0.00 0.00 0.02 0.08 0.20 0.41 0.38
0.10 0.19 0.20 0.08 0.00 0.00 0.00 0.00 0.00 0.00 0.00 0.00 0.00 0.00 0.00 0.00 0.00 0.00 0.00 0.00 0.00 0.00 0.00 0.00 0.00 0.01 0.03 0.02 0.00 0.00 0.00 0.00 0.00 0.00 0.00 0.02 0.03 0.00 0.00 0.00 0.00 0.00 0.02 0.08 0.16
0.04 0.02 0.04 0.02 0.00 0.00 0.00 0.00 0.00 0.00 0.00 0.00 0.00 0.00 0.00 0.00 0.00 0.00 0.00 0.00 0.00 0.00 0.00 0.00 0.01 0.00 0.00 0.00 0.00 0.00 0.00 0.00 0.00 0.00 0.01 0.01 0.00 0.00 0.00 0.00 0.00 0.00 0.00 0.00 0.01
0.01 0.02 0.01 0.00 0.00 0.00 0.00 0.00 0.00 0.00 0.00 0.00 0.00 0.00 0.00 0.00 0.00 0.00 0.00 0.00 0.00 0.00 0.00 0.00 0.00 0.00 0.00 0.00 0.00 0.00 0.00 0.00 0.00 0.00 0.00 0.00 0.00 0.00 0.00 0.00 0.00 0.00 0.00 0.00 0.00
0.00 0.00 0.00 0.00 0.00 0.00 0.00 0.00 0.00 0.00 0.00 0.00 0.00 0.00 0.00 0.00 0.00 0.00 0.00 0.00 0.00 0.00 0.00 0.00 0.00 0.00 0.00 0.00 0.00 0.00 0.00 0.00 0.00 0.00 0.00 0.00 0.00 0.00 0.00 0.00 0.00 0.00 0.00 0.00 0.00